Weather History for Anchorage Merrill, AK

Change the Weather History Date:

Saturday, October 16, 2010

  Actual Average Record
Temperature  
Mean Temperature 32 °F -  
Max Temperature 39 °F 38 °F 59 °F (2013)
Min Temperature 26 °F 26 °F 12 °F (1997)
Degree Days  
Heating Degree Days 32    
Moisture  
Dew Point 24 °F    
Average Humidity 66    
Maximum Humidity 81    
Minimum Humidity 53    
Precipitation  
Precipitation 0.00 in - - ()
Sea Level Pressure  
Sea Level Pressure 29.57 in    
Wind  
Wind Speed 2 mph (North)    
Max Wind Speed 8 mph    
Max Gust Speed -    
Visibility 10 miles    
Events      
Averages and records for this station are not official NWS values.
T = Trace of Precipitation, MM = Missing Value Source: NWS Daily Summary

Daily Weather History Graph

Daily Weather History Graph

Search for Another Location

Airport:

Trip Planner

Search our weather history database for the weather conditions in past years. The results will help you decide how hot, cold, wet, or windy it might be!

Date:

Astronomy

Oct. 16, 2010 Rise Set
Actual Time 8:44 AM AKDT 6:43 PM AKDT
Civil Twilight 8:00 AM AKDT 7:27 PM AKDT
Nautical Twilight 7:10 AM AKDT 8:17 PM AKDT
Astronomical Twilight 6:20 AM AKDT 9:08 PM AKDT
Moon 5:08 PM AKDT (10/16) 1:05 AM AKDT (10/16)
Length of Visible Light 11h 27m
Length of Day
9h 58m
Waxing Gibbous, 68% of the Moon is Illuminated
Oct 16
Waxing Gibbous
Oct 22
Full
Oct 30
Last Quarter
Nov 5
New
Nov 13
First Quarter

Hourly Weather History & Observations

Time (AKDT) Temp. Windchill Dew Point Humidity Pressure Visibility Wind Dir Wind Speed Gust Speed Precip Events Conditions
12:53 AM 34.0 °F 29.8 °F 24.1 °F 67% 29.77 in 10.0 mi NNE 4.6 mph - N/A   Overcast
1:53 AM 33.1 °F - 24.1 °F 70% 29.75 in 10.0 mi Calm Calm - N/A   Mostly Cloudy
2:53 AM 34.0 °F - 25.0 °F 70% 29.73 in 10.0 mi Calm Calm - N/A   Mostly Cloudy
3:53 AM 32.0 °F - 25.0 °F 75% 29.72 in 10.0 mi Calm Calm - N/A   Overcast
4:53 AM 30.0 °F - 24.1 °F 79% 29.68 in 10.0 mi Calm Calm - N/A   Overcast
5:53 AM 28.9 °F - 23.0 °F 78% 29.67 in 10.0 mi Calm Calm - N/A   Mostly Cloudy
6:53 AM 28.0 °F - 23.0 °F 81% 29.65 in 10.0 mi Calm Calm - N/A   Clear
7:53 AM 27.0 °F - 21.9 °F 81% 29.63 in 10.0 mi Calm Calm - N/A   Scattered Clouds
8:53 AM 27.0 °F - 21.9 °F 81% 29.62 in 10.0 mi Calm Calm - N/A   Clear
9:21 AM 26.6 °F - 21.2 °F 80% 29.60 in 10.0 mi Calm Calm - N/A   Clear
9:53 AM 30.9 °F 27.5 °F 23.0 °F 72% 29.60 in 10.0 mi NNE 3.5 mph - N/A   Clear
10:53 AM 34.0 °F 27.2 °F 23.0 °F 64% 29.58 in 10.0 mi North 8.1 mph - N/A   Overcast
11:53 AM 36.0 °F 30.3 °F 23.0 °F 59% 29.56 in 10.0 mi North 6.9 mph - N/A   Overcast
12:53 PM 37.9 °F 32.7 °F 23.0 °F 55% 29.55 in 10.0 mi North 6.9 mph - N/A   Overcast
1:53 PM 39.0 °F 35.7 °F 24.1 °F 55% 29.54 in 10.0 mi NNE 4.6 mph - N/A   Overcast
2:53 PM 39.0 °F 35.7 °F 25.0 °F 57% 29.52 in 10.0 mi North 4.6 mph - N/A   Overcast
3:53 PM 39.0 °F 35.7 °F 25.0 °F 57% 29.51 in 10.0 mi NW 4.6 mph - N/A   Overcast
4:53 PM 39.0 °F - 24.1 °F 55% 29.49 in 10.0 mi Calm Calm - N/A   Overcast
5:53 PM 39.0 °F - 23.0 °F 53% 29.47 in 10.0 mi Calm Calm - N/A   Overcast
6:53 PM 39.0 °F 36.8 °F 24.1 °F 55% 29.46 in 10.0 mi NE 3.5 mph - N/A   Overcast
7:53 PM 37.9 °F - 24.1 °F 57% 29.45 in 10.0 mi Calm Calm - N/A   Mostly Cloudy
8:53 PM 37.0 °F - 25.0 °F 62% 29.44 in 10.0 mi Calm Calm - N/A   Overcast
9:53 PM 37.0 °F - 25.0 °F 62% 29.43 in 10.0 mi Calm Calm - N/A   Overcast
10:53 PM 39.0 °F 34.8 °F 25.0 °F 57% 29.43 in 10.0 mi North 5.8 mph - N/A   Overcast
11:53 PM 39.0 °F 36.8 °F 25.0 °F 57% 29.42 in 10.0 mi NNW 3.5 mph - N/A   Overcast